Regional Weather Roundup
Issued by NWS

Home | Current Version | Previous Version | Text Only | Print | Product List | Glossary On
Versions: 1 2 3 4 5 6 7 8 9 10 11 12 13 14 15 16 17 18 19 20 21 22 23 24 25 26 27 28 29 30 31 32 33 34 35 36 37 38 39 40 41 42 43 44 45 46 47 48 49 50
949
ASUS43 KLSX 250907
RWRMO

WEATHER SUMMARY FOR MISSOURI
NATIONAL WEATHER SERVICE SPRINGFIELD MO
300 AM CST SUN FEB 25 2018

NOTE: "FAIR" INDICATES FEW OR NO CLOUDS BELOW 12,000 FEET WITH NO
       SIGNIFICANT WEATHER AND/OR OBSTRUCTIONS TO VISIBILITY.
       CURRENT SKY AND/OR WEATHER CONDITIONS ARE NOT AVAILABLE FOR
       CHILLICOTHE AND FARMINGTON.

MOZ001>031-035>038-043-044-053-054-251000-
...NORTHERN AND WESTERN MISSOURI...

CITY           SKY/WX    TMP DP  RH WIND       PRES   REMARKS
KANSAS CTY INT CLEAR     29  21  72 W7        29.95F WCI  22
KANSAS C DTWN  CLEAR     32  24  72 SW3       29.97S
LEE`S SUMMIT   CLEAR     32  26  78 W5        29.96F WCI  27
ST JOSEPH      CLEAR     27  22  81 SW8       29.96S WCI  19
CHILLICOTHE      N/A     32  26  78 VRB5      29.93S WCI  27
KIRKSVILLE     CLEAR     32  28  85 W16G23    29.87R WCI  21

$$
MOZ066>068-077>081-088>096-101>105-251000-
...SOUTHWEST MISSOURI...

CITY           SKY/WX    TMP DP  RH WIND       PRES   REMARKS
SPRINGFIELD    CLEAR     34  31  88 SW5       29.98F WCI  30
JOPLIN         CLEAR     32  31  96 CALM      30.01S

$$
MOZ032>034-039>042-045>050-055>058-069>072-251000-
...CENTRAL MISSOURI...

CITY           SKY/WX    TMP DP  RH WIND       PRES   REMARKS
COLUMBIA       CLEAR     33  30  88 W12       29.94S WCI  24
JEFFERSON CITY CLEAR     35  30  82 W10       29.97R WCI  27
ROLLA          CLEAR     32  30  92 W10       29.96S WCI  24
SEDALIA        CLEAR     34  32  92 W12       29.97R WCI  25
WHITEMAN AFB   CLEAR    N/A N/A N/A W8        29.94S
WARRENSBURG    CLEAR     32  28  86 SW5       29.98R WCI  27
OSAGE BEACH    CLEAR     33  30  88 SW6       29.99S WCI  28

$$
MOZ051-052-059>065-251000-
...EAST CENTRAL MISSOURI...

CITY           SKY/WX    TMP DP  RH WIND       PRES   REMARKS
ST LOUIS INTL  PTCLDY    38  31  76 W14       29.94R WCI  30
SPIRIT OF STL  CLEAR     38  32  79 W15G22    29.94R WCI  29
ST CHARLES       N/A     37  30  75 W13       29.93R WCI  29

$$
MOZ072>076-082>087-097>100-106>115-251000-
...SOUTH CENTRAL AND SOUTHEAST MISSOURI...

CITY           SKY/WX    TMP DP  RH WIND       PRES   REMARKS
CAPE GIRARDEAU FAIR      45  36  70 W17       29.97R
FARMINGTON     CLOUDY    37  29  72 W9        29.97R
POPLAR BLUFF   FAIR      44  34  67 NW7       30.00R
WEST PLAINS    CLEAR     34  30  85 W5        30.01R WCI  30

$$



USA.gov is the U.S. government's official web portal to all federal, state and local government web resources and services.